Find Starlink 34340

NORAD ID: 64163 Int'l Des: 2025-112 Owner: SPXS Country: US Constellation: starlink operational
LEOCIRCULARRETROGRADESSO

Live Position

Loading 3D Globe...

About Starlink 34340

Description loading...

Upcoming Passes

Passes for default location (London). Set your location on the main map for personalized predictions.

Altitude History

Loading altitude history...

Two-Line Element Set

1 64163U 25112T 26106.62215483 .00003107 00000-0 21950-3 0 9998
2 64163 97.6033 158.8788 0001114 129.9911 230.1414 15.05645891 49017
Epoch: Apr 16, 2026 • Age: 17 hours

Current Status

Altitude 576.0 km
Velocity 7.57 km/s
Sub-Earth Point -69.58°S, 6.66°W
Launch Date May 27, 2025
Age 0.8 years
Type internet

Technical Details

Classification Payload
Mass 575.00 kg
Dry Mass 530.00 kg
Total Mass 575.00 kg
Length 0.30 m
Diameter 4.10 m
Span 29.00 m
Shape Box + pan
Manufacturer SPXS
Bus Type Starlink V2MO
Phase Status In Orbit
Owner/State SPXS/US

Most Searched